Retour au catalogue

COSMOS 2384

ActifNavigationPO
NORAD 27055·PAYLOAD·🇷🇺 Russia

Lancé Dec 28, 2001 depuis Plesetsk Cosmodrome

Loading…

Prochains Passages (prochaines 24 heures)

TLE

FraisSource: Space-Track

Époque: Sep 14, 2026, 22:01 UTC

1 27055U 01058A   26257.91775174  .00000011  00000-0 -97677-7 0  9992
2 27055  82.5497 176.3512 0011298  54.9528 305.2620 12.59892996136351

Suivez COSMOS 2384 en temps réel avec AllMySat

Download on the App Store